Flag for Germany Weather past 2 weeks in Gummersbach, North Rhine-Westphalia, Germany

Now
54 °F

Clear.


Feels Like: 54 °F
Forecast: 52 / 73 °F
Wind: 2 mph from South

Location: Koeln / Bonn

Current Time: Aug 1, 2015 at 1:49:39 AM

Latest Report: Aug 1, 2015 at 1:20 AM


Visibility: 10 mi

Pressure: 30.01 "Hg

Humidity: 72%

Dew point: 45 °F

Location of GummersbachLocation

Historic Weather in Gummersbach — Graph

°F

Gummersbach temperature yesterday

Maximum temperature yesterday: 68 °F (at 4:50 PM)
Minimum temperature yesterday: 48 °F (at 3:20 AM)
Average temperature yesterday: 58 °F

Past Weeks' High & Low Weather Summary

 TemperatureHumidityPressure
High95 °F (Jul 17, 3:20 PM)100% (Jul 31, 4:20 AM)30.15 "Hg (Jul 31, 4:20 AM)
Low48 °F (Jul 26, 3:50 AM)15% (Jul 17, 4:20 PM)29.56 "Hg (Jul 25, 6:50 AM)
Average65 °F68%29.90 "Hg
* Reported Jul 17 12:20 AM — Aug 1 12:20 AM, Gummersbach, Weather by CustomWeather, © 2015

Note: Actual official high and low records may vary slightly from our data, if they occured in-between our weather recording intervals... More about our weather records

Advertising

Gummersbach weather history for previous 24 hours

 ConditionsComfort  
Time TempWeatherWind HumidityBarometerVisibility
12:20 AM
Sat, Aug 1
57 °FClear.9 mph59%30.01 "Hg10 mi
11:50 PM
Fri, Jul 31
55 °FClear.8 mph63%30.01 "Hg10 mi
11:20 PM55 °FClear.7 mph67%30.01 "Hg10 mi
10:50 PM57 °FClear.5 mph63%30.01 "Hg10 mi
10:20 PM59 °FClear.7 mph59%30.01 "Hg10 mi
9:50 PM59 °FSunny.6 mph59%30.01 "Hg10 mi
9:20 PM61 °FSunny.5 mph55%30.01 "Hg10 mi
8:50 PM64 °FSunny.5 mph49%30.01 "Hg10 mi
8:20 PM66 °FSunny.5 mph43%30.01 "Hg10 mi
7:50 PM68 °FSunny.5 mph38%30.01 "Hg10 mi
7:20 PM68 °FPassing clouds.5 mph35%30.04 "HgN/A
6:50 PM68 °FSunny.5 mph35%30.04 "Hg10 mi
6:20 PM68 °FSunny.3 mph33%30.04 "Hg10 mi
5:50 PM68 °FPassing clouds.6 mph35%30.07 "HgN/A
5:20 PM68 °FSunny.7 mph38%30.07 "Hg10 mi
4:50 PM68 °FSunny.2 mph40%30.07 "Hg10 mi
4:20 PM66 °FSunny.8 mph43%30.07 "Hg10 mi
3:50 PM66 °FSunny.7 mph43%30.07 "Hg10 mi
3:20 PM66 °FPassing clouds.7 mph40%30.07 "HgN/A
2:50 PM66 °FSunny.6 mph43%30.09 "Hg10 mi
2:20 PM64 °FSunny.6 mph43%30.09 "Hg10 mi
1:50 PM64 °FSunny.5 mph43%30.12 "Hg10 mi
1:20 PM63 °FPartly sunny.5 mph45%30.12 "HgN/A
12:50 PM63 °FScattered clouds.5 mph49%30.12 "HgN/A
12:20 PM61 °FPassing clouds.2 mph55%30.15 "HgN/A
11:50 AM61 °FPassing clouds.2 mph55%30.15 "HgN/A
11:20 AM59 °FPassing clouds.3 mph59%30.15 "HgN/A
10:50 AM59 °FPassing clouds.6 mph59%30.15 "HgN/A
10:20 AM57 °FPassing clouds.5 mph67%30.15 "HgN/A
9:50 AM55 °FPassing clouds.3 mph77%30.15 "HgN/A
9:20 AM52 °FScattered clouds.3 mph88%30.15 "Hg4 mi
8:50 AM52 °FFog.5 mph88%30.15 "Hg3 mi
8:20 AM52 °FFog.3 mph88%30.15 "Hg2 mi
7:50 AM50 °FFog.3 mph94%30.15 "Hg2 mi
7:20 AM50 °FFog.2 mph94%30.15 "Hg1 mi
6:50 AM50 °FFog.2 mph94%30.12 "Hg1 mi
6:20 AM50 °FFog.1 mph94%30.12 "Hg1 mi
5:50 AM50 °FCool.3 mph94%30.12 "Hg1 mi
5:20 AM50 °FFog.2 mph94%30.12 "Hg1 mi
4:50 AM50 °FFog.3 mph94%30.12 "HgN/A
4:20 AM50 °FPassing clouds.2 mph100%30.12 "HgN/A
3:50 AM48 °FFog.1 mph94%30.12 "Hg6 mi
3:20 AM48 °FFog.2 mph94%30.12 "HgN/A
2:50 AM50 °FFog.1 mph88%30.12 "HgN/A
2:20 AM50 °FFog.2 mph94%30.12 "HgN/A
1:50 AM50 °FFog.2 mph94%30.12 "HgN/A
1:20 AM52 °FFog.2 mph88%30.12 "HgN/A
Weather by CustomWeather, © 2015

See weather overviewHow to use our weather pages